TimeCDT,TemperatureF,Dew PointF,Humidity,Sea Level PressureIn,VisibilityMPH,Wind Direction,Wind SpeedMPH,Gust SpeedMPH,PrecipitationIn,Events,Conditions,WindDirDegrees,DateUTC
12:51 AM,68.0,64.9,90,30.00,10.0,SSE,4.6,-,N/A,,Clear,160,2012-11-02 05:51:00
1:48 AM,66.2,62.6,88,30.00,2.5,Calm,Calm,-,N/A,,Partly Cloudy,0,2012-11-02 06:48:00
1:51 AM,66.9,63.0,87,30.00,8.0,Calm,Calm,-,N/A,Fog,Patches of Fog,0,2012-11-02 06:51:00
2:51 AM,66.9,64.9,93,29.99,7.0,SE,3.5,-,N/A,Fog,Patches of Fog,130,2012-11-02 07:51:00
3:51 AM,66.0,64.0,93,29.99,9.0,ESE,4.6,-,N/A,Fog,Patches of Fog,120,2012-11-02 08:51:00
4:51 AM,66.9,66.0,97,29.99,9.0,SE,4.6,-,N/A,Fog,Patches of Fog,130,2012-11-02 09:51:00
5:51 AM,64.9,64.0,97,29.99,7.0,SSE,3.5,-,N/A,Fog,Patches of Fog,160,2012-11-02 10:51:00
6:06 AM,64.4,62.6,94,29.99,1.2,ESE,4.6,-,N/A,Fog,Partly Cloudy,110,2012-11-02 11:06:00
6:38 AM,64.4,62.6,94,30.00,2.5,ESE,3.5,-,N/A,Fog,Partly Cloudy,120,2012-11-02 11:38:00
6:47 AM,64.4,62.6,94,30.00,7.0,SE,4.6,-,N/A,Fog,Patches of Fog,130,2012-11-02 11:47:00
6:51 AM,66.0,64.0,93,30.00,9.0,SE,4.6,-,N/A,Fog,Patches of Fog,130,2012-11-02 11:51:00
7:51 AM,64.0,62.1,93,30.01,10.0,SE,8.1,-,N/A,Fog,Shallow Fog,130,2012-11-02 12:51:00
8:51 AM,72.0,68.0,87,30.02,10.0,SE,5.8,-,N/A,,Scattered Clouds,130,2012-11-02 13:51:00
9:51 AM,79.0,68.0,69,30.03,10.0,South,8.1,-,N/A,,Scattered Clouds,170,2012-11-02 14:51:00
10:51 AM,84.0,64.9,53,30.02,10.0,South,17.3,-,N/A,,Scattered Clouds,170,2012-11-02 15:51:00
11:51 AM,87.1,63.0,44,30.02,10.0,South,16.1,24.2,N/A,,Scattered Clouds,180,2012-11-02 16:51:00
12:51 PM,88.0,62.1,42,29.99,10.0,South,11.5,-,N/A,,Scattered Clouds,180,2012-11-02 17:51:00
1:51 PM,89.1,60.1,38,29.97,10.0,SSE,19.6,24.2,N/A,,Scattered Clouds,150,2012-11-02 18:51:00
2:51 PM,90.0,61.0,38,29.94,10.0,SSE,17.3,25.3,N/A,,Scattered Clouds,150,2012-11-02 19:51:00
3:51 PM,89.1,60.1,38,29.93,10.0,SE,16.1,25.3,N/A,,Scattered Clouds,140,2012-11-02 20:51:00
4:51 PM,87.1,62.1,43,29.93,10.0,SE,19.6,-,N/A,,Partly Cloudy,130,2012-11-02 21:51:00
5:51 PM,84.0,64.9,53,29.93,10.0,SE,20.7,-,N/A,,Partly Cloudy,130,2012-11-02 22:51:00
6:51 PM,81.0,66.0,60,29.94,10.0,SE,19.6,-,N/A,,Partly Cloudy,130,2012-11-02 23:51:00
7:51 PM,79.0,66.9,66,29.95,10.0,SE,13.8,-,N/A,,Partly Cloudy,140,2012-11-03 00:51:00
8:51 PM,78.1,66.9,68,29.96,10.0,SE,12.7,-,N/A,,Partly Cloudy,140,2012-11-03 01:51:00
9:51 PM,77.0,68.0,74,29.97,10.0,SSE,11.5,-,N/A,,Partly Cloudy,150,2012-11-03 02:51:00
10:51 PM,77.0,66.9,71,29.98,10.0,SSE,10.4,-,N/A,,Partly Cloudy,150,2012-11-03 03:51:00
11:51 PM,75.0,66.9,76,29.99,10.0,SSE,9.2,-,N/A,,Partly Cloudy,150,2012-11-03 04:51:00